Regional Weather Roundup
Issued by NWS

Home | Current Version | Previous Version | Text Only | Print | Product List | Glossary On
Versions: 1 2 3 4 5 6 7 8 9 10 11 12 13 14 15 16 17 18 19 20 21 22 23 24 25 26 27 28 29 30 31 32 33 34 35 36 37 38 39 40 41 42 43 44 45 46 47 48 49 50
000
ASUS45 KTFX 202319
RWRMT
MONTANA HOURLY WEATHER ROUNDUP
NATIONAL WEATHER SERVICE GREAT FALLS MT
519 PM MDT SUN APR 20 2014

NOTE: "FAIR" INDICATES FEW OR NO CLOUDS BELOW 12000 FEET WITH NO
SIGNIFICANT WEATHER AND/OR OBSTRUCTIONS TO VISIBILITY.

* THESE STATIONS ARE NOT UNDER NWS QUALITY CONTROL. THEY DO NOT
   REPORT WEATHER SUCH AS PRECIPITATION OR FOG.

MTZ001>007-043-210000-
WEST OF THE DIVIDE
CITY           SKY/WX    TMP DP  RH WIND       PRES   REMARKS
KALISPELL      MOCLDY    57  23  27 SW9       30.18F
MISSOULA       CLEAR     57  19  23 NW16G22   30.22S
BUTTE          PTCLDY    55   9  16 NW14      30.18R
MULLAN PASS    CLEAR     39  19  45 VRB7      30.24R WCI  34
* ESSEX        N/A       50  21  32 SE7G12     N/A
* LINCOLN      N/A       54  16  22 SW8G29     N/A
* LOOKOUT PASS N/A       47  21  36 S4G9       N/A
* PLAINS APT   CLEAR     59  19  21 SW10G17   30.21F
* POLSON       N/A       60  21  22 W4G9       N/A
* RONAN APT    CLEAR     57  19  23 S13G18     N/A
* SEELEY LAKE  N/A       53  16  23 W7G16      N/A
* THOMP F APT  CLEAR     60  15  17 SW8G16     N/A
$$

MTZ008-052>055-210000-
SOUTHWEST MONTANA
CITY           SKY/WX    TMP DP  RH WIND       PRES   REMARKS
BOZEMAN        CLEAR     61  10  13 NW13G23   30.13F
DILLON         CLEAR     57   9  15 W14G21    30.16S
W YELLOWSTONE  N/A       58  13  17 W3G10      N/A
* THREE FORKS  CLEAR     63  16  16 SW8        N/A
* BOULDER HILL N/A       53  15  22 S11G20     N/A
* MONIDA PASS  N/A       54   7  15 W7         N/A
* RAYNOLDS PAS N/A       54  13  19 NE7        N/A
* WHITEHALL    N/A       65  13  13 W11G23     N/A
* WISE RIVER   N/A       52  11  19 NW14G29    N/A
$$

MTZ009>010-012-014-046-048-049-054-210000-
EAST SLOPES AND CENTRAL MONTANA
CITY           SKY/WX    TMP DP  RH WIND       PRES   REMARKS
CUT BANK       CLEAR     55  19  24 W22G29    30.10R
GREAT FALLS    CLEAR     59  12  15 NW13G25   30.11S
HELENA         CLEAR     61  12  14 NW15G22   30.14S
MALMSTROM AFB  CLEAR     59  10  14 W16       30.09S
* CONRAD       CLEAR     57  18  22 W18G23     N/A
* DEARBORN     N/A       59  16  18 S12G22     N/A
* MONARCH      N/A       50  11  21 NW17G27    N/A
* PENDROY      N/A       54  18  24 NW17G27    N/A
* ROGERS PASS  N/A       47  15  28 E14G23     N/A
* SAINT MARY   N/A       49  22  35 S9G22      N/A
* SWEET GRASS  N/A       55  17  22 NW21G28    N/A
* WHITE SULPH  N/A       57  10  15 W17G30     N/A
$$

MTZ011-013-016-021-035-040-045-047-050-051-210000-
NORTH CENTRAL MONTANA
CITY           SKY/WX    TMP DP  RH WIND       PRES   REMARKS
HAVRE          MOCLDY    63  19  18 NW17G25   30.03R
LEWISTOWN      CLEAR     57  10  15 NW18G32   30.10R
* CHINOOK      CLEAR     64  23  21 W18G28    30.02R
* FORT BENTON  CLEAR     61  16  17 W21G26    30.09R
* MALTA APT    CLEAR     63  27  26 NW20G26   29.99R
* CHESTER      N/A       59  17  19 NW18G31    N/A
* DENTON       N/A       59  17  19 W18G30     N/A
* GEYSER       N/A       56  16  21 W17G27     N/A
* JUDITH GAP   N/A       57  13  17 NW16       N/A
* LOMA         N/A       61  15  16 W15G25     N/A
$$

MTZ017>020-022>027-061-062-210000-
NORTHEAST MONTANA
CITY           SKY/WX    TMP DP  RH WIND       PRES   REMARKS
GLASGOW        FAIR      64  25  23 W25G35    29.99R
GLENDIVE       CLEAR     64  21  19 W22       30.02R
JORDAN         CLEAR     64  18  17 W22G28    30.03R
SIDNEY         MOCLDY    66  25  21 W18G28    29.98R
WOLF POINT     FAIR      64  27  25 NW21G32   29.98R
* BEAVER HILL  N/A       63  18  17 W21G28     N/A
* CIRCLE       N/A       65  28  25 SW13G23    N/A
* LINDSAY DVD  N/A       61  19  20 W27G33     N/A
* NAVAJO       N/A       59  27  29 NW25G33    N/A
* SACO         N/A       64  25  23 W25G35     N/A
$$

MTZ028>042-056>058-210000-
SOUTHCENTRAL AND SOUTHEAST MONTANA
CITY           SKY/WX    TMP DP  RH WIND       PRES   REMARKS
BAKER          CLEAR     64  19  18 W25G35    30.01R
BILLINGS       FAIR      64  14  14 N20G29    30.07S
LIVINGSTON     CLEAR     63  12  13 W21G30    30.10S
MILES CITY     CLEAR     66  10  11 NW26G32   30.03R
* LAUREL APT   CLEAR     66  25  21 W15G26     N/A
* ROUNDUP APT  CLEAR     63  12  13 W11G18     N/A
* HYSHAM       N/A       63  15  15 W4G16      N/A
* LAME DEER    N/A       60  11  14 W15G22     N/A
* REED POINT   N/A       64  22  20 W27G32     N/A
* ROSCOE HILL  N/A       59  13  16 N10G16     N/A
$$

REGIONAL REPORTS...DAKOTAS
CITY           SKY/WX    TMP DP  RH WIND       PRES   REMARKS
WILLISTON      CLEAR     66  27  23 W26G39    29.92R
DICKINSON      PTCLDY    66  25  21 NW23G36   29.95R
CROSBY         CLEAR     61  28  29 W25G43    29.90R
TIOGA          PTCLDY    61  28  29 W29G36    29.93R
WATFORD CITY   FAIR      64  25  23 NW22G30   29.92R
BISMARCK       MOCLDY    75  32  21 NW24G35   29.87R
GRAND FORKS    CLOUDY    70  36  29 S10       29.86F
FARGO          PTCLDY    73  30  20 SW10      29.89F
BUFFALO SD     PTCLDY    66  23  19 NW22G30   29.94R
RAPID CITY     MOCLDY    66  30  26 N24G36    29.98R
$$

REGIONAL REPORTS...WYOMING/IDAHO/WASHINGTON
CITY           SKY/WX    TMP DP  RH WIND       PRES   REMARKS
GILLETTE       CLEAR     63  30  29 N15G23    30.06S
SHERIDAN       CLEAR     63  28  27 N12       30.07S
CODY           PTCLDY    61  27  27 NE9G17    30.09R
YELLOWSTONE LA PTCLDY    46  14  27 VRB7G18   30.23F
SALMON         PTCLDY    61  18  19 N9        30.14F
MULLAN PASS    CLEAR     39  19  45 VRB7      30.24S WCI  34
SAND POINT     MOCLDY    54  32  43 SE10      30.23F
SPOKANE        CLOUDY    55  28  35 S9        30.23F
$$

REGIONAL REPORTS...ALBERTA
CITY           SKY/WX    TMP DP  RH WIND       PRES   REMARKS
CALGARY        PTCLDY    57  18  22 W20G26    30.01R
LETHBRIDGE     FAIR      57  21  25 W32G40    30.05R
MEDICINE HAT   MOCLDY    61  23  23 NW16G23   30.01R
EDMONTON       N/A       54  30  40 N10       29.98R
WATERTON GATE  N/A       50  19  29 SW20G33    N/A
CARDSTON       N/A       54  23  30 W16G28     N/A
$$

REGIONAL REPORTS...SASKATCHEWAN
CITY           SKY/WX    TMP DP  RH WIND       PRES   REMARKS
SWIFT CURRENT  MOCLDY    52  36  55 NW37G46   29.91R
REGINA         LGT RAIN  50  41  71 W5        29.86R
VAL MARIE      N/A       59  25  27 NW23G32    N/A
ASSINIBOIA     N/A       54  34  47 W32G40     N/A
CORONACH       N/A       57  27  32 W32G39     N/A

$$




USA.gov is the U.S. government's official web portal to all federal, state and local government web resources and services.